Back to catalog

CZ-6A DEB

AliveSSO
NORAD 56263·DEBRIS·🇨🇳 China

Launched Nov 11, 2022 from Taiyuan Satellite Launch Center

Loading…

Next Passes (next 24 hours)

TLE

FreshSource: Space-Track

Epoch: Sep 14, 2026, 14:19 UTC

1 56263U 22151ACF 26257.59658982  .00001434  00000-0  32305-3 0  9995
2 56263  98.4903 301.3492 0116687 358.8477   1.2432 14.53921921184563

Track CZ-6A DEB in real time with AllMySat

Download on the App Store